STARLINK-5756 (55598 NORAD) Tracking and Keplerian Element Data

This shows tracking and keplerian element data for the satellite.

Feedback or suggestion? Click here.




ElementValue
Catalog55598
NameSTARLINK-5756
Epoch Orbit130
Epoch Day84.91667824
Epoch Year2023
RAAN105.1088
Inclination42.999
Eccentricity0.0001291
Argument of Perigee259.469
Mean Anonmoly327.4338
Mean Motion15.52063064
Decay Rate-0.00862038
L11 55598U 23020AF 23084.91667824 -.00862038 00000+0 -15278-1 0 9991
L22 55598 42.9990 105.1088 0001291 259.4690 327.4338 15.52063064 1304



Live tracking and technical data element details for STARLINK-5756 (NORAD 55598). STARLINK-5756 can be tracked NOW for your location showing map with azimuth and elevation plus other details from your city location.







IsCatalogInMostPopularTable: catalog: 55598, numindb: -1

Insert: records affected: 1


GetName: 55598 STARLINK-5756

Hit Count: inserted at: Tue, 28 Mar 2023 02:01:20 GMT